CW4778 Auckland NZ current weather conditions

sailwx.info

Wind from 234 at 2 knots gusting 6

Air temperature 11.1° C
Dewpoint 7.8° C

Last reported at 2014-Oct-20 08:48 UTC.
Time now 2014-Oct-20 09:42 UTC

Location: S 36°52' E 174°44'.
View on Google Maps.

See reports from other nearby stations

  
Tides and Currents Weather Stations Pressure Air Temp Water Temp Dewpoint Dewpoint Depression Visibility Wind Speed Wind Dir Waves Ship Positions
date/time (UTC)wind fromknots sea level pressurealtimeterstation pressurevisibilityair tempwater tempwave heightnotes
2014-Oct-20 08:48 234 2 gusting 6 11.1
2014-Oct-20 08:38 246 1 gusting 6 11.7
2014-Oct-20 08:28 244 0 gusting 10 11.7
2014-Oct-20 08:18 211 4 gusting 8 11.7
2014-Oct-20 08:08 246 4 gusting 8 12.2
2014-Oct-20 07:58 250 1 gusting 6 12.2
2014-Oct-20 07:48 234 1 gusting 6 12.2
2014-Oct-20 07:38 198 2 gusting 8 12.2
2014-Oct-20 07:28 227 2 gusting 11 12.8
2014-Oct-20 07:18 219 3 gusting 14 12.8
2014-Oct-20 07:08 228 4 gusting 10 13.3
2014-Oct-20 06:58 235 1 gusting 17 13.3
2014-Oct-20 06:48 206 4 gusting 12 13.3
2014-Oct-20 06:38 227 5 gusting 11 13.3
2014-Oct-20 06:28 231 4 gusting 12 13.3
2014-Oct-20 06:18 221 4 gusting 13 13.3
2014-Oct-20 06:08 219 3 gusting 13 13.3
2014-Oct-20 05:58 229 3 gusting 14 13.3
2014-Oct-20 05:48 217 6 gusting 12 13.3
2014-Oct-20 05:38 221 6 gusting 12 13.3
2014-Oct-20 05:28 235 6 gusting 19 13.3
2014-Oct-20 05:18 223 4 gusting 13 14.4
2014-Oct-20 05:08 182 2 gusting 11 14.4
2014-Oct-20 04:58 226 4 gusting 10 14.4
2014-Oct-20 04:48 250 2 gusting 12 15.0
2014-Oct-20 04:38 198 6 gusting 12 14.4
2014-Oct-20 04:28 201 5 gusting 12 15.0
2014-Oct-20 04:18 184 6 gusting 14 15.0
2014-Oct-20 04:08 224 5 gusting 17 15.0
2014-Oct-20 03:58 184 6 gusting 13 16.1
2014-Oct-20 03:48 252 4 gusting 14 16.1
2014-Oct-20 03:38 258 5 gusting 13 15.0
2014-Oct-20 03:28 213 6 gusting 17 15.6
2014-Oct-20 03:18 246 8 gusting 19 16.7
2014-Oct-20 03:08 244 5 gusting 13 16.1
2014-Oct-20 02:58 254 5 gusting 13 15.6
2014-Oct-20 02:48 219 6 gusting 11 16.1
2014-Oct-20 02:38 248 4 gusting 14 17.8
2014-Oct-20 02:28 245 5 gusting 14 17.8
2014-Oct-20 02:18 189 6 gusting 19 16.7
2014-Oct-20 02:08 249 5 gusting 14 17.8
2014-Oct-20 01:58 243 2 gusting 19 16.1
2014-Oct-20 01:48 210 10 gusting 17 15.6
2014-Oct-20 01:38 176 5 gusting 17 17.8
2014-Oct-20 01:28 230 7 gusting 14 17.2
2014-Oct-20 01:18 214 6 gusting 17 16.1
2014-Oct-20 01:08 227 6 gusting 13 17.8
2014-Oct-20 00:58 221 3 gusting 18 16.7
2014-Oct-20 00:48 200 6 gusting 14 16.7
2014-Oct-20 00:38 206 6 gusting 14 16.7
2014-Oct-20 00:28 214 8 gusting 14 16.7
2014-Oct-20 00:18 185 3 gusting 14 16.7
2014-Oct-20 00:08 198 6 gusting 13 15.6
2014-Oct-19 23:58 200 2 gusting 13 16.1
2014-Oct-19 23:48 184 6 gusting 14 16.7
2014-Oct-19 23:38 251 5 gusting 12 17.2
2014-Oct-19 23:28 228 7 gusting 13 16.1
2014-Oct-19 23:18 185 6 gusting 17 16.7
2014-Oct-19 23:08 214 6 gusting 13 15.6
2014-Oct-19 22:58 221 6 gusting 13 15.6
2014-Oct-19 22:48 248 0 gusting 13 15.0
2014-Oct-19 22:38 217 6 gusting 14 15.0
2014-Oct-19 22:28 219 8 gusting 13 16.7
2014-Oct-19 22:18 235 3 gusting 11 17.2
2014-Oct-19 22:08 212 5 gusting 11 15.6
2014-Oct-19 21:58 227 5 gusting 13 15.6
2014-Oct-19 21:48 214 2 gusting 10 15.6
2014-Oct-19 21:38 252 2 gusting 7 13.9
2014-Oct-19 21:28 197 0 gusting 5 13.9
2014-Oct-19 21:18 217 0 gusting 8 13.3
2014-Oct-19 21:08 211 4 gusting 10 12.8
2014-Oct-19 20:58 229 2 gusting 10 13.3
2014-Oct-19 20:38 227 1 gusting 7 12.8
2014-Oct-19 20:08 195 3 gusting 8 15.6
2014-Oct-19 19:58 249 1 gusting 6 16.7
2014-Oct-19 19:48 245 3 gusting 6 16.1
2014-Oct-19 19:38 282 0 gusting 6 15.0
2014-Oct-19 19:28 224 4 gusting 6 14.4
2014-Oct-19 19:18 221 2 gusting 6 13.9
2014-Oct-19 19:08 259 2 gusting 6 13.3
2014-Oct-19 18:58 266 1 gusting 4 12.8
2014-Oct-19 18:48 271 0 gusting 4 12.2
2014-Oct-19 18:38 254 11.7
2014-Oct-19 18:28 260 11.7
2014-Oct-19 18:18 264 11.1
2014-Oct-19 18:08 264 10.6
2014-Oct-19 17:58 261 10.0
2014-Oct-19 17:48 263 10.0
2014-Oct-19 17:38 261 10.0
2014-Oct-19 17:28 275 10.0
2014-Oct-19 17:18 281 10.0
2014-Oct-19 17:08 268 10.0
2014-Oct-19 16:58 264 0 gusting 2 10.0
2014-Oct-19 16:48 285 10.0
2014-Oct-19 16:38 283 10.0
2014-Oct-19 16:28 280 10.6
2014-Oct-19 16:18 282 10.6
2014-Oct-19 16:08 282 10.6
2014-Oct-19 15:58 278 11.1
2014-Oct-19 15:48 279 11.1
2014-Oct-19 15:38 280 11.7
2014-Oct-19 15:28 248 0 gusting 4 11.7
2014-Oct-19 15:18 256 0 gusting 4 12.2
2014-Oct-19 15:08 251 1 gusting 6 12.2
2014-Oct-19 14:58 261 12.8
2014-Oct-19 14:48 242 2 gusting 6 12.8
2014-Oct-19 14:38 248 1 gusting 6 12.8
2014-Oct-19 14:28 257 12.8
2014-Oct-19 14:18 222 1 gusting 6 12.8
2014-Oct-19 14:08 255 2 gusting 5 12.8
2014-Oct-19 13:58 273 1 gusting 6 12.8
2014-Oct-19 13:48 273 13.3
2014-Oct-19 13:38 254 2 gusting 6 13.3
2014-Oct-19 13:28 266 1 gusting 5 12.8
2014-Oct-19 13:18 258 0 gusting 5 12.8
2014-Oct-19 13:08 262 1 gusting 6 13.3
2014-Oct-19 12:58 260 1 gusting 5 13.3
2014-Oct-19 12:48 259 1 gusting 6 12.8
2014-Oct-19 12:38 247 1 gusting 6 12.8
2014-Oct-19 12:28 259 1 gusting 6 12.8
2014-Oct-19 12:18 251 0 gusting 5 13.3
2014-Oct-19 12:08 239 1 gusting 6 13.3
2014-Oct-19 11:58 254 5 gusting 8 12.8
2014-Oct-19 11:48 247 3 gusting 6 13.3
2014-Oct-19 11:38 253 0 gusting 6 12.8
2014-Oct-19 11:28 238 1 gusting 7 12.8
2014-Oct-19 11:18 237 2 gusting 5 12.8
2014-Oct-19 11:08 249 12.8
2014-Oct-19 10:58 257 3 gusting 6 12.8
2014-Oct-19 10:48 241 0 gusting 5 12.8
2014-Oct-19 10:38 252 12.2
2014-Oct-19 10:28 271 1 gusting 6 12.2
2014-Oct-19 10:18 285 11.7
2014-Oct-19 10:08 293 11.7
2014-Oct-19 09:58 293 11.7
2014-Oct-19 09:48 327 11.7
2014-Oct-19 09:38 265 11.7
2014-Oct-19 09:28 258 12.2
2014-Oct-19 09:18 245 12.8
2014-Oct-19 09:08 256 0 gusting 6 12.8
2014-Oct-19 08:58 269 1 gusting 6 12.8
2014-Oct-19 08:48 247 12.8
2014-Oct-19 08:38 266 1 gusting 6 13.3
2014-Oct-19 08:28 265 4 gusting 6 13.3
2014-Oct-19 08:18 269 2 gusting 6 13.3
2014-Oct-19 08:08 292 13.3
2014-Oct-19 07:58 275 0 gusting 6 13.3
2014-Oct-19 07:48 298 0 gusting 5 13.3
2014-Oct-19 07:38 223 0 gusting 6 13.3
2014-Oct-19 07:28 283 2 gusting 6 13.3
2014-Oct-19 07:18 265 4 gusting 7 13.3
2014-Oct-19 07:08 238 4 gusting 10 13.3
2014-Oct-19 06:58 279 2 gusting 6 13.3
2014-Oct-19 06:48 271 4 gusting 7 13.3
2014-Oct-19 06:38 270 6 gusting 10 13.9
2014-Oct-19 06:28 234 4 gusting 11 13.9
2014-Oct-19 06:18 250 4 gusting 10 13.9
2014-Oct-19 06:08 276 2 gusting 8 14.4
2014-Oct-19 05:58 024 3 gusting 6 15.0
2014-Oct-19 05:48 221 4 gusting 12 15.0
2014-Oct-19 05:38 180 6 gusting 10 15.0
2014-Oct-19 05:28 178 7 gusting 13 15.0
2014-Oct-19 05:18 209 5 gusting 12 15.0
2014-Oct-19 05:08 221 6 gusting 11 15.6
2014-Oct-19 04:58 182 5 gusting 13 15.6
2014-Oct-19 04:48 188 6 gusting 13 15.6
2014-Oct-19 04:38 184 7 gusting 15 16.1
2014-Oct-19 04:28 206 7 gusting 14 16.1
2014-Oct-19 04:18 186 6 gusting 13 16.1
2014-Oct-19 04:08 208 9 gusting 18 16.7
2014-Oct-19 03:58 203 6 gusting 13 17.2
2014-Oct-19 03:48 177 7 gusting 13 17.2
2014-Oct-19 03:38 163 6 gusting 15 17.2
2014-Oct-19 03:28 182 6 gusting 13 17.2
2014-Oct-19 03:18 193 6 gusting 14 17.8
2014-Oct-19 03:08 183 6 gusting 13 17.2
2014-Oct-19 02:58 188 6 gusting 13 17.8
2014-Oct-19 02:48 193 6 gusting 13 17.8
2014-Oct-19 02:38 180 5 gusting 15 17.8
2014-Oct-19 02:28 204 8 gusting 15 17.8
2014-Oct-19 02:18 183 7 gusting 13 18.3
2014-Oct-19 02:08 207 7 gusting 13 17.2
2014-Oct-19 01:58 189 8 gusting 13 16.7
2014-Oct-19 01:48 241 7 gusting 13 17.2
2014-Oct-19 01:38 216 7 gusting 13 17.8
2014-Oct-19 01:28 207 6 gusting 13 18.9
2014-Oct-19 01:18 193 7 gusting 14 17.8
2014-Oct-19 01:08 203 6 gusting 14 18.3
2014-Oct-19 00:58 206 7 gusting 14 18.3
2014-Oct-19 00:48 210 7 gusting 13 18.3
2014-Oct-19 00:38 185 7 gusting 15 18.9
2014-Oct-19 00:28 199 8 gusting 15 18.9
2014-Oct-19 00:18 168 6 gusting 13 19.4
2014-Oct-19 00:08 211 5 gusting 13 19.4
2014-Oct-18 23:58 181 6 gusting 13 18.9
2014-Oct-18 23:48 194 6 gusting 14 18.9
2014-Oct-18 23:38 202 6 gusting 14 19.4
2014-Oct-18 23:28 221 6 gusting 11 18.9
2014-Oct-18 23:18 217 5 gusting 13 18.3
2014-Oct-18 23:08 203 5 gusting 8 18.3
2014-Oct-18 22:58 183 6 gusting 10 18.3
2014-Oct-18 22:48 224 4 gusting 12 18.3
2014-Oct-18 22:38 201 6 gusting 11 18.3
2014-Oct-18 22:28 227 6 gusting 12 17.2
2014-Oct-18 22:18 193 6 gusting 14 17.8
2014-Oct-18 22:08 191 5 gusting 8 17.8
2014-Oct-18 21:58 201 1 gusting 10 16.7
2014-Oct-18 21:48 201 4 gusting 10 16.1
2014-Oct-18 21:38 180 5 gusting 8 15.6
2014-Oct-18 21:28 231 4 gusting 10 16.7
2014-Oct-18 21:18 208 1 gusting 7 15.6
2014-Oct-18 21:08 208 3 gusting 6 14.4
2014-Oct-18 20:58 219 1 gusting 6 14.4
2014-Oct-18 20:48 230 4 gusting 6 14.4
2014-Oct-18 20:38 224 5 gusting 6 14.4
2014-Oct-18 20:28 216 4 gusting 8 15.0
2014-Oct-18 20:18 195 6 gusting 6 14.4
2014-Oct-18 20:08 212 5 gusting 7 14.4
2014-Oct-18 19:58 245 2 gusting 11 13.9
2014-Oct-18 19:48 231 4 gusting 8 13.3
2014-Oct-18 19:38 241 0 gusting 4 13.9
2014-Oct-18 19:28 266 13.3
2014-Oct-18 19:18 253 2 gusting 5 13.3
2014-Oct-18 19:08 254 12.8
2014-Oct-18 18:58 245 12.8
2014-Oct-18 18:48 237 12.2
2014-Oct-18 18:38 241 12.2
2014-Oct-18 18:28 241 12.2
2014-Oct-18 18:18 241 12.2
2014-Oct-18 18:08 242 12.2
2014-Oct-18 17:58 231 1 gusting 4 12.2
2014-Oct-18 17:48 226 12.2
2014-Oct-18 17:38 219 0 gusting 6 12.2
2014-Oct-18 17:28 214 12.2
2014-Oct-18 17:18 250 12.2
2014-Oct-18 17:08 248 12.2
2014-Oct-18 16:58 248 0 gusting 2 12.2
2014-Oct-18 16:48 248 12.2
2014-Oct-18 16:38 245 2 gusting 4 12.2
2014-Oct-18 16:28 233 1 gusting 4 12.2
2014-Oct-18 16:18 217 0 gusting 4 12.2
2014-Oct-18 16:08 217 3 gusting 6 12.2
2014-Oct-18 15:58 238 1 gusting 4 12.2
2014-Oct-18 15:48 242 1 gusting 5 12.2
2014-Oct-18 15:38 225 2 gusting 6 12.2
2014-Oct-18 15:28 243 4 gusting 6 12.2
2014-Oct-18 15:18 229 4 gusting 7 12.2
2014-Oct-18 15:08 214 6 gusting 11 12.2
2014-Oct-18 14:58 207 6 gusting 11 12.8
2014-Oct-18 14:48 206 5 gusting 10 12.8
2014-Oct-18 14:38 214 2 gusting 6 12.8
2014-Oct-18 14:28 217 3 gusting 6 12.8
2014-Oct-18 14:18 215 1 gusting 6 12.8
2014-Oct-18 14:08 209 2 gusting 6 12.8
2014-Oct-18 13:58 213 3 gusting 6 12.8
2014-Oct-18 13:48 210 1 gusting 6 12.8
2014-Oct-18 13:38 211 2 gusting 5 12.8
2014-Oct-18 13:28 223 1 gusting 6 12.8
2014-Oct-18 13:18 204 1 gusting 5 12.2
2014-Oct-18 13:08 204 2 gusting 6 12.2
2014-Oct-18 12:58 208 2 gusting 6 12.2
2014-Oct-18 12:48 196 2 gusting 6 12.2
2014-Oct-18 12:38 223 2 gusting 6 12.2
2014-Oct-18 12:28 231 3 gusting 10 12.2
2014-Oct-18 12:18 208 4 gusting 8 12.8
2014-Oct-18 12:08 210 4 gusting 10 12.8
2014-Oct-18 11:58 171 3 gusting 8 12.8
2014-Oct-18 11:48 181 4 gusting 6 12.8
2014-Oct-18 11:38 207 2 gusting 6 13.3
2014-Oct-18 11:28 187 2 gusting 7 13.3
2014-Oct-18 11:18 223 3 gusting 7 13.3
2014-Oct-18 11:08 214 3 gusting 6 13.3
2014-Oct-18 10:58 208 13.3
2014-Oct-18 10:48 211 1 gusting 5 13.3
2014-Oct-18 10:38 207 1 gusting 4 13.3
2014-Oct-18 10:28 202 2 gusting 5 13.3
2014-Oct-18 10:18 200 2 gusting 5 13.3
2014-Oct-18 10:08 188 1 gusting 4 13.3
2014-Oct-18 09:58 193 13.3
2014-Oct-18 09:48 191 1 gusting 5 13.9
2014-Oct-18 09:38 237 13.9
2014-Oct-18 09:28 237 0 gusting 2 13.9
2014-Oct-18 09:18 270 14.4
2014-Oct-18 09:08 281 14.4